Погода в Славянском

Россия / Краснодарский край     44°41′48″N   40°31′13″E
темп.,
°C
ветер,
м/с
пор.,
м/с
влажн.,
%
обл.,
%
осадки,
мм/ч
давл.,
гПа
погр.,
м
16 апреля, пт
пт1600:00+8ююв359298 0.1 101980
03:00+8ююв349279 0.1 101862
06:00+8ююв228932 0.0 101821
09:00+13юв127191 0.0 1018342
12:00+16зсз3270100 0.0 1018874
15:00+13с4484100 0.3 1018435
18:00+12св338799 0.1 1019519
21:00+11св359398 0.2 1019222
17 апреля, сб
сб1700:00+10ссз2396100 0.2 101972
03:00+10сз1198100 1.7 102039
06:00+10зсз3798100 3.6 1021411
09:00+9зсз3598100 6.3 1022295
12:00+8ссз2295100 1.7 1023250
15:00+8св1196100 3.8 1023151
18:00+8в2496100 0.8 1023197
21:00+9вюв2593100 0.8 1023146
18 апреля, вс
вс1800:00+8в2492100 0.0 1022107
03:00+7в359499 0.0 1021105
06:00+8всв4994100 0.3 1019280
09:00+9в599480 0.4 1018341
12:00+16ссв3375100 0.2 1016752
15:00+12с3495100 1.2 1017266
18:00+14в238953 0.1 1017212
21:00+11ююв2295100 0.9 101714
19 апреля, пн
пн1900:00+11юв3493100 0.1 101666
03:00+10юв3492100 0.1 101651
06:00+11юз2289100 0.0 101628
09:00+13в1195100 3.3 101655
12:00+17вюв578296 0.2 1014411
15:00+19в567599 0.2 1012416
18:00+19в41080100 0.0 1010294
21:00+15вюв41084100 0.0 1007172
20 апреля, вт
вт2000:00+14юв51178100 0.0 1004145
03:00+17юв81661100 0.0 1001212
06:00+14з4877100 0.0 1002129
09:00+15з5983100 0.0 1006589
12:00+17зсз687097 0.0 1007969
15:00+11зсз51190100 3.4 1011939
18:00+10зюз61684100 5.4 1013721
21:00+9з5118410 5.4 1016326